Location: ?????
(33.6267°N, 35.4675°E)
Time: 23:16:50
(UTC+00:00)

Sich 1 - Pass Details

Date: 12 November 2019
Orbit: 595 x 624 km, 82.5° (Epoch: 15 December)

Event Time Altitude Azimuth Distance (km) Brightness Sun altitude
Rises 15:42:32 0° 1° (N) 2,862 6.3 -13.8°
Reaches altitude 10° 15:44:50 10° 8° (N) 1,959 5.4 -14.3°
Maximum altitude 15:48:58 43° 81° (E) 853 3.3 -15.1°
Drops below altitude 10° 15:53:07 10° 153° (SSE) 1,964 5.5 -16.0°
Sets 15:55:26 0° 160° (SSE) 2,870 6.4 -16.4°
